sat.trackr.live / text

‹ back to catalog

STARLINK-3456

NORAD 51759 · 2022-016AX

PAYLOAD ACTIVE UNKNOWN

§ Identity

Operator
Country
US
Launch date
2022-02-21
Launch site
AFETR
Launch vehicle
Mass (kg)
RCS (m²)

Purposes: comms

External: N2YO · Heavens-Above · Gunter

§ Orbital elements

Epoch: 2026-05-24T19:59:15.145152Z

Period
95.44 min
Inclination
53.2134°
Eccentricity
0.0001397
Mean motion
15.08843538 rev/d
Perigee alt
538.8 km
Apogee alt
540.7 km
Semi-major
6,917.9 km
B*
4.7354e-5
RAAN
327.2959°
Arg perigee
111.7936°
Mean anomaly
248.3205°
Rev number
23,520

§ Raw data

STARLINK-34561 51759U 22016AX  26144.83281418  .00000466  00000+0  47354-4 0  99922 51759  53.2134 327.2959 0001397 111.7936 248.3205 15.08843538235203

JSON: /api/v1/satellites/51759 · /tle

For live sub-satellite position, see the globe view (requires WebGL).

§ Visibility from observer

Set your observer location to see the next 7 days of passes ≥ 10°. The values pass through the URL so the page stays shareable.

No JS? Fill the form by hand. The geolocation button needs JavaScript.